SCP
0 0 0 0 0 0 1 1 0 0 0 0 0 0 1 1 1 1 1 1 1 1 1 1 1 0 1 1 1 0 1 1 1 1 1 1 1 1 1 1 1 1 1
0 0 0 0 0 0 0 0 0 0 0 0 0 1 1 1 1 1 1 1 1 1 1 1 1 1 1 1 1 1 1 1 1 1 1 1 1 1 1 1 1 1 1
0 0 0 0 0 0 0 0 0 0 0 1 1 1 1 1 1 1 1 1 1 1 1 1 1 1 1 1 1 0 0 1 1 1 1 1 1 1 1 1 1 1 1
0 0 0 0 0 0 0 0 0 0 0 1 1 1 1 1 1 1 1 0 0 1 1 1 1 1 1 1 1 0 0 1 1 1 1 1 1 1 1 1 1 1 1
0 0 0 0 0 0 0 0 0 0 0 0 0 0 1 1 1 1 1 0 0 1 1 1 1 1 1 1 1 1 1 1 1 1 1 0 0 0 1 1 1 1 1
0 0 0 0 0 0 0 0 0 0 0 0 0 0 0 1 1 1 0 0 0 1 1 1 1 1 1 1 1 1 1 1 1 1 1 0 0 0 0 0 1 1 1
0 0 0 0 0 1 1 0 0 0 0 0 0 0 0 1 1 1 0 0 0 0 0 1 1 1 1 1 1 1 1 1 1 1 0 0 0 0 0 0 0 1 1
1 1 1 1 1 1 1 1 1 1 1 1 0 0 0 0 0 0 0 0 0 0 0 0 1 1 1 1 1 1 1 1 1 1 0 0 0 0 0 0 0 1 1
1 1 1 1 1 1 1 1 1 1 1 1 1 0 0 0 0 0 0 0 0 0 0 0 0 1 1 1 1 1 1 1 1 1 1 0 0 0 0 0 0 1 1
2 2 2 2 2 1 1 1 1 1 1 1 1 1 0 0 0 0 0 0 0 0 0 0 0 0 1 1 1 1 0 0 1 1 1 0 0 0 0 0 0 0 1
4 3 3 2 2 2 1 1 1 1 1 1 1 1 0 0 0 0 0 0 0 0 0 0 0 0 0 1 1 1 0 0 0 1 1 1 0 0 0 0 0 0 0
4 4 4 3 3 2 2 1 1 1 1 1 1 1 0 0 0 0 0 0 0 0 0 1 1 0 0 0 1 0 0 0 0 1 1 1 1 0 0 0 0 0 0
3 4 4 4 3 3 2 1 1 1 1 1 1 1 0 0 0 0 0 0 0 0 0 0 1 1 0 0 0 0 0 0 0 1 1 1 1 0 0 0 0 0 0
3 3 3 4 4 3 2 1 1 1 1 1 1 0 0 0 1 0 0 0 0 0 0 0 1 1 0 0 0 0 0 0 0 0 1 1 0 0 0 0 0 0 0
2 2 3 3 3 3 2 1 1 1 1 0 0 0 0 0 1 0 0 0 0 0 0 0 0 0 0 0 0 0 0 0 0 0 0 0 0 0 0 0 0 0 0
2 2 2 3 2 2 2 1 1 1 0 0 0 0 0 0 1 0 0 0 0 0 0 0 0 0 0 0 0 0 0 0 0 0 0 0 0 0 0 0 0 0 0
1 1 2 2 2 1 1 1 1 0 0 0 0 0 0 0 1 1 0 0 0 0 0 0 0 0 0 0 0 0 0 0 0 0 0 0 0 0 0 0 0 0 0
1 1 1 1 1 1 1 1 0 0 0 0 0 0 0 0 0 0 0 0 0 0 0 0 0 0 0 0 0 0 0 0 0 0 0 0 0 0 0 0 0 0 0
0 1 1 1 1 0 0 0 0 0 0 0 0 0 0 0 0 0 0 0 0 0 0 0 0 0 0 0 0 0 0 0 0 0 0 0 0 0 0 0 0 0 0
1 1 0 0 0 0 0 0 0 0 0 0 0 0 0 0 0 0 0 0 0 0 0 0 0 0 0 0 0 0 0 0 0 0 0 0 0 0 0 0 0 0 0
1 1 0 0 0 0 0 0 0 0 0 0 0 0 0 0 0 0 0 0 0 0 0 0 0 0 0 0 0 0 0 0 0 0 0 0 0 0 0 0 0 0 0
1 1 1 1 1 0 0 0 0 0 0 0 0 0 0 0 0 0 0 0 0 0 0 0 0 0 0 0 0 0 0 0 0 0 0 0 0 0 0 0 0 0 0
2 2 1 1 1 0 0 0 0 0 0 0 0 0 0 0 0 0 0 0 0 0 0 0 0 0 0 0 0 0 0 0 0 0 0 0 0 0 0 0 0 0 0
2 2 2 2 1 1 0 0 0 0 0 0 0 0 0 0 0 0 0 0 0 0 0 0 0 0 0 0 0 0 0 0 0 0 0 0 0 0 0 0 0 0 0
1 1 1 1 1 0 0 0 0 0 0 0 0 0 0 0 0 0 0 0 0 0 0 0 0 0 0 0 0 0 0 0 0 0 0 0 0 0 0 0 0 0 0
1 1 1 1 1 0 0 0 0 0 0 0 0 0 0 0 0 0 0 0 0 0 0 0 0 0 0 0 0 0 0 0 0 0 0 0 0 0 0 0 0 0 0
Wind_Speed
2 2 2 2 2 1 1 1 2 3 3 4 4 4 4 4 4 4 4 9 10 9 10 10 9 9 9 9 9 8 8 8 7 7 7 7 7 7 6 6 6 5 4
2 2 3 2 2 2 2 2 3 3 2 3 3 3 4 3 4 4 4 5 8 8 9 9 8 8 8 8 7 7 7 7 7 7 7 6 6 6 5 5 5 5 5
3 3 2 2 2 2 3 3 3 2 3 3 4 3 3 3 3 3 3 3 4 6 7 8 8 7 7 7 7 7 7 7 7 7 7 7 7 6 6 5 5 5 5
4 3 2 2 3 3 2 2 2 3 3 3 3 3 3 2 3 2 2 3 3 3 4 6 7 7 6 6 6 6 6 6 6 6 7 7 7 7 6 6 5 5 5
4 3 2 2 3 2 2 3 3 2 2 3 2 2 2 2 1 2 3 3 3 3 3 5 6 6 5 5 5 5 6 5 6 6 6 6 6 6 6 6 5 4 4
3 3 2 3 3 2 2 3 3 2 2 1 2 2 1 1 1 2 2 2 2 3 3 4 3 3 4 4 5 5 5 5 4 4 5 5 5 5 5 5 5 4 4
3 3 2 3 2 2 3 3 2 2 1 1 2 2 1 1 2 1 1 2 2 2 3 3 2 2 2 4 4 4 5 4 4 4 4 4 5 4 5 5 5 5 4
2 2 2 2 2 2 3 3 2 2 1 1 1 1 1 2 2 2 1 1 2 2 2 3 3 3 2 2 3 4 4 3 3 3 3 3 4 3 3 4 4 4 4
2 2 2 2 2 2 2 2 2 2 1 1 2 1 1 1 1 2 1 1 2 1 1 2 2 3 3 2 2 3 3 3 2 2 2 2 2 3 2 2 3 4 4
2 2 2 2 2 2 2 1 2 1 1 1 1 1 1 1 1 1 2 1 1 1 1 1 2 2 3 2 3 4 4 3 2 2 1 1 1 2 2 2 3 3 3
2 2 2 2 2 2 2 2 2 1 1 1 1 1 2 1 1 1 0 1 1 1 1 1 1 2 2 2 2 3 4 3 2 2 1 1 1 1 2 2 2 3 3
1 2 2 2 2 2 2 2 2 2 1 1 1 1 0 0 1 1 0 1 1 1 1 0 1 2 2 2 3 5 5 4 2 1 1 1 2 2 2 3 3 3 3
1 2 1 1 1 2 2 2 2 1 1 1 1 1 1 0 0 1 1 0 1 1 1 1 1 2 2 3 3 5 5 4 2 1 0 1 2 2 3 3 4 4 4
2 3 2 2 2 1 2 2 1 1 1 1 1 1 1 0 1 1 1 1 1 2 1 2 0 1 2 2 3 4 3 4 3 3 2 1 1 2 3 4 4 5 5
2 2 3 3 2 2 2 2 1 0 1 1 1 1 0 0 0 0 1 1 1 1 2 1 1 0 1 2 3 2 2 3 3 4 3 3 2 3 4 4 4 5 5
2 3 3 3 3 2 2 2 1 1 2 1 1 1 1 1 1 1 0 0 0 1 1 1 1 1 1 1 1 1 2 3 3 3 4 4 4 4 4 5 4 5 5
3 3 2 2 2 2 2 2 1 0 1 1 0 1 1 1 1 1 1 1 1 0 1 2 1 1 1 1 1 1 1 2 2 4 5 5 5 5 6 6 5 5 5
2 2 3 2 2 2 2 2 2 1 0 0 0 1 1 1 1 0 0 1 1 1 1 2 2 1 1 1 1 2 2 2 2 4 5 5 5 5 6 6 6 6 5
2 2 3 2 2 2 2 1 1 1 1 0 0 1 1 1 1 1 1 1 1 1 0 1 2 1 2 1 1 2 2 2 2 3 4 5 6 6 6 6 6 6 6
2 2 2 2 2 2 2 1 1 0 0 0 1 1 1 2 1 1 1 1 1 1 1 1 1 2 2 2 1 1 2 2 3 2 2 3 5 6 6 6 6 6 6
2 2 2 2 2 2 2 2 1 0 1 1 1 1 2 3 2 1 1 0 1 0 1 1 1 1 1 1 1 1 2 3 3 2 1 2 2 2 3 5 6 6 6
2 2 2 2 2 2 3 3 2 1 0 1 1 1 2 2 2 2 1 1 0 1 1 1 1 1 2 1 1 2 2 2 3 2 1 3 1 2 3 2 4 6 6
2 2 2 3 3 3 4 3 3 1 1 1 1 1 1 1 2 0 1 1 1 2 2 2 2 2 2 2 1 2 2 2 3 3 1 3 2 3 3 3 4 4 5
2 2 3 3 3 3 3 3 2 1 1 1 1 1 2 1 1 1 1 1 2 2 2 2 2 2 2 2 2 3 4 3 3 3 1 2 2 3 3 2 4 4 5
2 2 2 3 3 3 3 2 2 0 1 1 1 2 2 2 2 3 1 1 2 2 2 3 3 3 3 4 2 1 2 2 3 3 1 1 2 3 3 2 3 5 5
2 2 2 2 3 3 3 3 1 0 0 0 1 2 3 2 2 3 1 1 2 2 2 3 3 3 3 3 4 1 1 1 2 3 2 1 2 2 3 2 1 2 3
Wind_Direction
93 95 88 83 85 90 80 50 58 62 57 61 63 63 66 72 83 87 89 93 93 93 91 88 85 82 84 81 76 72 69 70 70 73 76 77 75 71 68 69 69 64 59
83 77 79 74 65 62 70 65 65 61 60 65 60 63 70 67 77 94 109 99 98 100 98 95 91 87 85 84 79 74 71 71 72 73 76 78 73 69 65 65 63 61 59
84 79 73 74 65 57 55 53 51 52 59 63 60 58 68 73 76 89 108 116 109 100 103 102 97 91 85 82 80 76 76 73 74 76 75 74 69 66 63 64 60 58 55
75 69 62 64 67 56 57 61 50 52 54 59 52 44 54 70 80 100 105 111 114 111 108 111 106 99 92 86 84 82 81 78 79 77 75 73 68 65 60 60 56 54 51
83 83 72 67 71 62 54 61 57 55 59 62 61 53 47 55 57 87 94 102 108 117 115 114 111 107 101 95 93 92 85 81 79 78 76 74 70 65 57 53 49 52 53
78 84 83 73 75 74 63 66 71 63 60 63 59 63 55 63 43 75 95 94 113 125 124 121 123 113 110 101 99 96 88 84 83 84 80 74 68 64 57 47 44 45 48
87 78 67 71 68 73 74 74 71 78 55 61 59 29 18 37 67 67 92 99 94 100 120 133 130 120 120 112 92 98 93 91 89 93 86 76 68 63 54 46 41 39 42
89 100 100 91 83 73 65 67 71 63 22 38 79 74 33 8 1 31 72 114 110 95 96 102 107 109 117 113 104 97 88 95 98 97 88 79 67 60 50 42 39 37 35
106 105 101 103 107 100 98 93 92 88 52 1 38 73 103 167 329 338 351 68 91 89 89 95 107 113 111 114 117 108 95 88 102 102 96 83 62 52 44 44 33 25 26
104 91 101 100 97 100 113 115 90 98 97 31 3 15 50 116 122 322 324 360 75 97 116 104 89 91 103 111 117 120 116 101 94 85 78 74 52 36 26 29 25 14 10
123 112 100 87 92 97 96 80 85 62 75 84 59 20 10 2 23 131 286 321 351 353 73 112 136 114 113 123 136 136 134 122 96 75 43 16 359 1 358 355 353 351 354
130 118 107 106 106 102 96 92 91 72 58 58 46 53 84 360 323 63 146 278 290 295 319 196 150 140 128 120 129 134 141 137 130 103 33 351 338 332 328 327 322 322 330
145 141 113 129 109 116 122 117 109 125 115 105 78 35 29 5 20 60 72 338 322 291 289 274 195 154 139 129 133 144 156 160 165 164 179 331 325 321 316 311 311 309 310
169 162 154 139 120 115 117 119 110 141 145 139 121 102 52 339 50 91 118 93 342 317 307 281 289 133 130 138 154 160 172 183 191 194 212 248 285 300 306 305 305 301 299
161 145 140 136 124 110 91 98 117 96 89 87 88 100 104 112 59 65 114 138 142 293 293 289 342 25 102 109 156 170 177 201 205 212 225 238 253 269 285 295 302 302 297
150 147 149 146 131 126 110 93 79 59 78 81 102 94 50 36 44 26 351 317 156 188 257 293 296 313 29 100 170 202 203 199 207 223 234 238 244 258 267 278 284 291 294
151 143 132 123 134 140 123 117 126 95 126 163 198 134 133 104 76 9 357 354 342 18 253 291 304 330 10 36 348 280 226 206 217 232 241 242 244 252 262 264 266 272 280
138 130 126 129 137 126 123 132 159 185 199 184 189 123 107 96 102 42 2 317 303 287 203 281 305 330 324 273 229 255 260 236 228 235 236 237 248 255 262 263 260 261 265
131 129 128 134 134 130 127 128 158 198 189 194 150 107 81 89 78 60 29 348 311 320 327 277 294 313 318 327 336 303 311 300 283 254 231 238 247 256 264 262 261 260 259
131 124 126 132 135 135 120 109 91 91 95 47 62 84 77 78 74 66 30 8 357 350 342 331 310 308 308 320 1 336 321 310 302 301 272 260 254 256 263 267 266 266 262
134 132 126 122 119 119 94 74 85 101 132 95 77 87 98 87 69 82 68 18 21 359 321 309 300 312 314 340 327 308 314 308 295 286 299 274 261 255 264 263 259 265 268
131 121 121 117 105 94 99 77 46 5 177 166 164 139 125 106 84 85 56 27 207 215 255 261 273 280 275 268 296 313 311 327 303 296 297 280 256 256 257 248 254 260 266
128 127 127 117 113 106 100 82 36 22 308 221 183 155 118 84 88 92 354 338 299 265 247 230 251 260 259 255 251 281 281 276 266 273 283 271 267 262 264 265 254 252 257
140 142 130 126 124 119 105 77 30 11 292 278 210 159 143 120 61 42 351 291 271 270 251 242 233 254 263 266 243 246 258 277 279 282 252 262 278 278 279 263 245 242 249
139 131 125 129 132 133 125 102 58 260 309 325 23 65 88 103 58 40 32 308 297 290 283 280 261 261 275 290 302 324 318 324 302 294 298 254 277 292 280 262 261 250 254
144 134 140 144 138 141 136 123 88 109 35 351 64 82 78 71 47 33 19 297 287 285 294 299 293 285 277 287 301 257 235 263 287 290 292 277 292 325 306 289 295 289 273